Location: Sawmill Trailhead
(33.5800°N, 116.4497°W)
Time: 13:41:32
(UTC-08:00)

Amateur Radio Satellites - All Passes

Search period start: 17 December 2017 13:11
Search period end: 18 December 2017 13:11
Location: Sawmill Trailhead, 33.5800°N, 116.4497°W

Satellite Date Start Highest point End Downlink Frequencies (MHz)
Time Altitude Azimuth
M-CUBED/EXP-1 PRIME 17 Dec 13:14:03 13:15:48 12° 60° (ENE) 13:17:36 437.505
VELOX 1 17 Dec 13:18:30 13:22:17 29° 289° (WNW) 13:26:01 145.980
YUBILEINY 17 Dec 13:29:12 13:37:58 66° 82° (E) 13:46:38 435.215
SPROUT 17 Dec 13:37:04 13:37:24 10° 294° (WNW) 13:37:45 437.525
UKube-1 17 Dec 13:40:38 13:44:51 54° 101° (E) 13:49:02 .
SO-50 17 Dec 13:40:38 13:44:54 49° 115° (ESE) 13:49:14 436.795
AO-91 17 Dec 13:48:53 13:51:35 15° 265° (W) 13:54:10 145.960
Gurwin Techsat 1B 17 Dec 14:01:43 14:05:26 19° 265° (W) 14:09:10 435.225
DX 1 17 Dec 14:03:28 14:07:36 44° 287° (WNW) 14:11:43 434.975-435.025
MOZHAYETS 4 17 Dec 14:07:28 14:11:04 22° 96° (E) 14:14:40
ITAMSAT 1 17 Dec 14:11:46 14:16:30 36° 71° (ENE) 14:21:14 435.822/435.867
AO-7 17 Dec 14:20:54 14:29:11 82° 72° (ENE) 14:37:33 .
NO-84 17 Dec 14:24:27 14:25:51 12° 238° (WSW) 14:27:15 435.350 FM
50 SAT 17 Dec 14:27:59 14:29:15 12° 290° (WNW) 14:30:31 437.505
RS-15 17 Dec 14:38:08 14:50:10 58° 305° (NW) 15:02:13 29.354- 29.394
M-CUBED/EXP-1 PRIME 17 Dec 14:45:18 14:49:32 59° 255° (WSW) 14:54:02 437.505
BEESAT 17 Dec 14:56:40 15:01:18 51° 100° (E) 15:05:56 436.000
UKube-1 17 Dec 15:19:14 15:20:20 11° 295° (WNW) 15:21:26 .
SO-50 17 Dec 15:22:54 15:25:38 16° 311° (NW) 15:28:21 436.795
ITUPSAT 1 17 Dec 15:27:12 15:31:59 75° 284° (WNW) 15:36:45 437.325
YUBILEINY 17 Dec 15:27:43 15:33:52 22° 278° (W) 15:40:01 435.215
DOVE 4 17 Dec 15:35:18 15:40:20 48° 74° (ENE) 15:45:15 437.250
nSIGHT-1 17 Dec 15:38:30 15:40:05 13° 30° (NNE) 15:41:41 .
CUBESAT XI-V 17 Dec 15:38:52 15:43:28 52° 100° (E) 15:48:02 437.345
MOZHAYETS 4 17 Dec 15:44:11 15:48:09 29° 289° (WNW) 15:52:06
ITAMSAT 1 17 Dec 15:52:00 15:55:58 22° 264° (W) 15:59:57 435.822/435.867
PCSat 17 Dec 15:54:50 15:55:57 11° 102° (ESE) 15:57:05 145.827
CUTE-I 17 Dec 16:03:45 16:06:37 15° 64° (ENE) 16:09:28 437.470
O/OREOS (USA 219) 17 Dec 16:11:38 16:12:04 10° 57° (ENE) 16:12:30 437.305
XW-2B 17 Dec 16:12:33 16:14:35 14° 69° (ENE) 16:16:37 145.730 - 145.750
AO-7 17 Dec 16:17:47 16:22:39 17° 266° (W) 16:27:34 .
XW-2F 17 Dec 16:21:02 16:23:31 17° 70° (ENE) 16:26:01 145.980 - 146.000
ISS 17 Dec 16:31:45 16:34:39 28° 37° (NE) 16:37:33 437.550
BEESAT 17 Dec 16:36:08 16:38:35 14° 294° (WNW) 16:41:03 436.000
XW-2C 17 Dec 16:38:40 16:42:02 31° 73° (ENE) 16:45:25 145.795 - 145.815
CUTE 1.7 + AOD 2 17 Dec 16:54:01 16:55:34 12° 67° (ENE) 16:57:09 437.475
RS-15 17 Dec 16:58:33 17:06:08 18° 332° (NNW) 17:13:39 29.354- 29.394
KKS-1 17 Dec 17:08:26 17:12:52 90° 284° (WNW) 17:17:16 437.445
HO-68 17 Dec 17:09:18 17:15:40 36° 66° (ENE) 17:22:03 435.675
nSIGHT-1 17 Dec 17:13:24 17:16:35 65° 226° (SW) 17:19:45 .
DOVE 4 17 Dec 17:14:49 17:18:07 17° 266° (W) 17:21:23 437.250
NUDT-PHONESAT 17 Dec 17:17:44 17:21:23 71° 77° (ENE) 17:25:05 437.300
CUBESAT XI-V 17 Dec 17:18:08 17:20:19 13° 294° (WNW) 17:22:30 437.345
LilacSat-2 17 Dec 17:19:03 17:22:49 62° 260° (W) 17:26:37 437.200
KAITUO 1B 17 Dec 17:27:41 17:31:24 77° 259° (W) 17:35:11 145.475/437.950
XW-2D 17 Dec 17:28:43 17:32:22 47° 261° (W) 17:36:03 145.860 - 145.880
PCSat 17 Dec 17:33:12 17:38:36 76° 296° (WNW) 17:44:02 145.827
CUTE-I 17 Dec 17:40:48 17:46:05 61° 259° (WSW) 17:51:24 437.470
STARS 17 Dec 17:41:29 17:45:50 81° 102° (ESE) 17:50:11 437.465
XW-2B 17 Dec 17:45:06 17:48:26 30° 263° (W) 17:51:49 145.730 - 145.750
BEESAT 3 17 Dec 17:47:13 17:50:16 21° 111° (ESE) 17:53:20 437.485
O/OREOS (USA 219) 17 Dec 17:47:27 17:51:54 65° 253° (WSW) 17:56:19 437.305
XW-2F 17 Dec 17:54:17 17:57:23 24° 264° (W) 18:00:31 145.980 - 146.000
SEEDS 17 Dec 17:57:04 18:01:00 39° 74° (ENE) 18:04:58 437.485
AAUSAT CUBESAT 2 17 Dec 18:06:09 18:09:12 20° 70° (ENE) 18:12:16 437.432
UWE-3 17 Dec 18:08:07 18:11:36 27° 72° (ENE) 18:15:05 435.000/436.395/437.385
ISS 17 Dec 18:08:28 18:11:00 20° 231° (SW) 18:13:30 437.550
XW-2C 17 Dec 18:14:28 18:16:14 13° 267° (W) 18:18:02 145.795 - 145.815
CUBEBUG 2 17 Dec 18:15:09 18:19:19 66° 76° (ENE) 18:23:26 437.445
FALCONSAT 3 17 Dec 18:21:49 18:22:35 10° 146° (SE) 18:23:20 435.103
ZACube-1 17 Dec 18:25:31 18:28:39 21° 70° (ENE) 18:31:48 437.345
CUTE 1.7 + AOD 2 17 Dec 18:26:50 18:30:55 48° 261° (W) 18:35:03 437.475
XW-2A 17 Dec 18:31:32 18:34:36 36° 75° (ENE) 18:37:44 145.665 - 145.685
BEESAT 2 17 Dec 18:35:55 18:38:48 19° 110° (ESE) 18:41:43 435.950
Oscar 11 17 Dec 18:39:11 18:42:06 18° 69° (ENE) 18:45:02 .
AO-73 17 Dec 18:56:21 19:00:15 44° 74° (ENE) 19:04:11 145.935
HO-68 17 Dec 18:56:42 19:03:14 38° 261° (W) 19:09:49 435.675
STRAND 1 17 Dec 19:02:38 19:07:41 62° 101° (ESE) 19:12:43 437.568
RS-15 17 Dec 19:22:08 19:26:18 12° 11° (N) 19:30:23 29.354- 29.394
BEESAT 3 17 Dec 19:24:20 19:27:38 25° 305° (NW) 19:30:58 437.485
SEEDS 17 Dec 19:34:46 19:36:48 13° 267° (W) 19:38:50 437.485
AAUSAT CUBESAT 2 17 Dec 19:40:56 19:44:26 26° 264° (W) 19:47:57 437.432
UWE-3 17 Dec 19:45:08 19:48:01 18° 265° (W) 19:50:54 435.000/436.395/437.385
FALCONSAT 3 17 Dec 19:57:38 20:01:10 45° 158° (SSE) 20:04:43 435.103
FO-29 17 Dec 19:58:10 20:04:39 63° 100° (E) 20:10:20 435.910
ZACube-1 17 Dec 20:01:29 20:04:47 23° 264° (W) 20:08:07 437.345
DELFI C3 17 Dec 20:08:32 20:12:09 34° 73° (ENE) 20:15:47 145.870
BEESAT 2 17 Dec 20:12:50 20:16:18 28° 305° (NW) 20:19:49 435.950
Oscar 11 17 Dec 20:14:08 20:17:58 31° 263° (W) 20:21:49 .
AO-85 17 Dec 20:33:08 20:36:59 81° 299° (WNW) 20:41:00 145.980
AO-73 17 Dec 20:35:38 20:36:41 11° 268° (W) 20:37:43 145.935
STRAND 1 17 Dec 20:43:57 20:46:17 13° 296° (WNW) 20:48:36 437.568
Max Valier Satellite 17 Dec 21:07:21 21:10:55 55° 260° (W) 21:14:31 145.860
ESTCUBE 1 17 Dec 21:20:14 21:21:59 12° 66° (ENE) 21:23:43 437.505/2401.250
EO-88 17 Dec 21:26:45 21:30:14 45° 261° (W) 21:33:45 145.990 - 145.960
TIGRISAT 17 Dec 21:31:42 21:36:07 77° 102° (ESE) 21:40:36 435.000
RS-15 17 Dec 21:34:01 21:44:20 33° 45° (NE) 21:54:07 29.354- 29.394
UNISAT 6 17 Dec 21:36:02 21:40:26 85° 281° (W) 21:44:56 437.425
FALCONSAT 3 17 Dec 21:36:31 21:40:12 71° 353° (N) 21:43:52 435.103
FO-29 17 Dec 21:44:49 21:48:53 18° 299° (WNW) 21:52:41 435.910
DELFI C3 17 Dec 21:44:57 21:46:56 13° 267° (W) 21:48:56 145.870
LO-87 17 Dec 21:45:58 21:48:58 26° 73° (ENE) 21:51:56 145.935 - 145.965
AIST 2D 17 Dec 22:09:18 22:11:41 17° 95° (E) 22:14:02 435.315
SO-50 17 Dec 22:16:17 22:19:24 17° 50° (NE) 22:22:31 436.795
VELOX 1 17 Dec 22:37:38 22:39:09 12° 66° (ENE) 22:40:39 145.980
PRISM 17 Dec 22:43:00 22:46:58 50° 285° (WNW) 22:50:53 437.425
SPROUT 17 Dec 22:47:26 22:50:53 25° 71° (ENE) 22:54:20 437.525
NANOSAT C BR1 17 Dec 22:47:41 22:49:54 14° 94° (E) 22:52:06 145.865
ESTCUBE 1 17 Dec 22:53:50 22:58:15 53° 260° (W) 23:02:41 437.505/2401.250
EO-79 17 Dec 23:04:23 23:07:57 26° 97° (E) 23:11:30 145.935-145.965
FALCONSAT 3 17 Dec 23:15:45 23:19:26 72° 8° (N) 23:23:06 435.103
LO-87 17 Dec 23:20:37 23:22:20 13° 266° (W) 23:24:03 145.935 - 145.965
POLYITAN 1 17 Dec 23:27:57 23:32:06 52° 100° (E) 23:36:14 437.675
AIST 2D 17 Dec 23:42:02 23:44:43 20° 288° (WNW) 23:47:23 435.315
RS-15 17 Dec 23:46:08 23:57:38 69° 247° (WSW) 00:08:32 29.354- 29.394
DUCHIFAT 1 17 Dec 23:52:50 23:57:03 80° 103° (ESE) 00:01:15 145.980
QB50P2 17 Dec 23:53:58 23:58:10 64° 284° (WNW) 00:02:21 145.880/145.840
SO-50 17 Dec 23:55:33 00:00:05 49° 245° (WSW) 00:04:40 436.795
VELOX 1 18 Dec 00:10:42 00:15:03 54° 260° (W) 00:19:26 145.980
BUGSAT 1 18 Dec 00:18:47 00:22:24 31° 98° (E) 00:26:03 437.445
NANOSAT C BR1 18 Dec 00:21:48 00:25:41 37° 287° (WNW) 00:29:34 145.865
SPROUT 18 Dec 00:23:25 00:26:40 21° 264° (W) 00:29:55 437.525
UKube-1 18 Dec 00:31:15 00:34:53 27° 71° (ENE) 00:38:31 .
YUBILEINY 18 Dec 00:34:12 00:37:47 13° 78° (ENE) 00:41:22 435.215
EO-79 18 Dec 00:40:23 00:43:30 20° 290° (WNW) 00:46:37 145.935-145.965
Gurwin Techsat 1B 18 Dec 00:41:12 00:45:24 23° 96° (E) 00:49:33 435.225
50 SAT 18 Dec 00:47:47 00:50:56 83° 73° (ENE) 00:54:06 437.505
JUGNU 18 Dec 00:47:48 00:50:21 13° 166° (SSE) 00:52:54 437.505
DX 1 18 Dec 00:54:16 00:58:38 90° 125° (SE) 01:03:02 434.975-435.025
FALCONSAT 3 18 Dec 00:54:56 00:58:27 43° 202° (SSW) 01:01:57 435.103
POLYITAN 1 18 Dec 01:06:15 01:07:22 11° 294° (WNW) 01:08:29 437.675
MOZHAYETS 4 18 Dec 01:06:41 01:08:58 14° 66° (ENE) 01:11:15
Oscar 19 18 Dec 01:07:39 01:12:49 63° 102° (ESE) 01:17:57 437.125/150
AO-91 18 Dec 01:40:54 01:44:05 40° 285° (WNW) 01:47:17 145.960
BUGSAT 1 18 Dec 01:54:57 01:57:28 16° 291° (WNW) 02:00:00 437.445
BEESAT 18 Dec 01:59:04 02:03:25 37° 72° (ENE) 02:07:47 436.000
RS-15 18 Dec 02:06:10 02:07:39 10° 265° (W) 02:09:08 29.354- 29.394
UKube-1 18 Dec 02:07:35 02:10:49 20° 264° (W) 02:14:04 .
Gurwin Techsat 1B 18 Dec 02:20:33 02:25:19 35° 290° (WNW) 02:30:06 435.225
YUBILEINY 18 Dec 02:24:21 02:33:10 86° 94° (E) 02:42:03 435.215
PCSat 18 Dec 02:25:20 02:30:20 36° 59° (ENE) 02:35:16 145.827
AO-7 18 Dec 02:27:38 02:35:08 35° 99° (E) 02:42:33 .
M-CUBED/EXP-1 PRIME 18 Dec 02:29:29 02:31:37 14° 96° (E) 02:33:40 437.505
ITAMSAT 1 18 Dec 02:29:34 02:32:56 17° 94° (E) 02:36:17 435.822/435.867
ITUPSAT 1 18 Dec 02:29:37 02:34:21 80° 76° (ENE) 02:39:08 437.325
JUGNU 18 Dec 02:34:31 02:38:39 20° 175° (S) 02:42:46 437.505
CUBESAT XI-V 18 Dec 02:38:09 02:42:16 32° 72° (ENE) 02:46:25 437.345
MOZHAYETS 4 18 Dec 02:41:17 02:45:39 47° 261° (W) 02:50:03
Oscar 19 18 Dec 02:49:02 02:51:32 14° 296° (WNW) 02:54:02 437.125/150
SRMSAT 18 Dec 03:31:01 03:33:17 12° 164° (SSE) 03:35:33 437.500
BEESAT 18 Dec 03:38:02 03:41:14 18° 265° (W) 03:44:28 436.000
DOVE 4 18 Dec 03:40:11 03:42:32 14° 93° (E) 03:44:49 437.250
BEESAT 3 18 Dec 03:43:45 03:47:32 47° 59° (ENE) 03:51:15 437.485
NO-84 18 Dec 03:57:23 03:59:58 32° 126° (SE) 04:02:40 435.350 FM
M-CUBED/EXP-1 PRIME 18 Dec 04:02:05 04:06:11 40° 292° (WNW) 04:10:00 437.505
KKS-1 18 Dec 04:02:10 04:06:27 49° 74° (ENE) 04:10:46 437.445
ITAMSAT 1 18 Dec 04:07:39 04:12:32 45° 288° (WNW) 04:17:26 435.822/435.867
PCSat 18 Dec 04:09:07 04:13:28 25° 253° (WSW) 04:17:47 145.827
CUBESAT XI-V 18 Dec 04:16:13 04:19:37 20° 265° (W) 04:23:03 437.345
AO-7 18 Dec 04:20:04 04:27:52 45° 295° (WNW) 04:35:40 .
JUGNU 18 Dec 04:22:54 04:27:00 20° 185° (S) 04:31:06 437.505
YUBILEINY 18 Dec 04:25:52 04:30:59 16° 293° (WNW) 04:36:10 435.215
BEESAT 2 18 Dec 04:33:23 04:37:14 44° 58° (ENE) 04:41:01 435.950
STARS 18 Dec 04:33:51 04:37:58 41° 73° (ENE) 04:42:06 437.465
LilacSat-2 18 Dec 04:56:55 04:59:37 18° 95° (E) 05:02:18 437.200
KAITUO 1B 18 Dec 05:03:59 05:05:54 13° 94° (E) 05:07:49 145.475/437.950
XW-2D 18 Dec 05:05:23 05:08:25 22° 96° (E) 05:11:25 145.860 - 145.880
AO-85 18 Dec 05:07:14 05:11:33 31° 55° (NE) 05:16:07 145.980
DOVE 4 18 Dec 05:16:25 05:20:21 35° 288° (WNW) 05:24:09 437.250
SRMSAT 18 Dec 05:17:33 05:21:46 20° 174° (S) 05:25:58 437.500
XW-2B 18 Dec 05:21:00 05:24:31 33° 98° (E) 05:28:00 145.730 - 145.750
XW-2F 18 Dec 05:29:20 05:32:57 40° 99° (E) 05:36:33 145.980 - 146.000
NO-84 18 Dec 05:35:38 05:37:18 14° 324° (NW) 05:38:59 435.350 FM
KKS-1 18 Dec 05:41:34 05:43:13 12° 267° (W) 05:44:51 437.445
XW-2C 18 Dec 05:48:24 05:52:15 85° 102° (ESE) 05:56:04 145.795 - 145.815
CUTE-I 18 Dec 06:01:50 06:07:10 76° 102° (ESE) 06:12:28 437.470
FO-29 18 Dec 06:05:10 06:10:54 23° 63° (ENE) 06:16:38 435.910
CUBEBUG 2 18 Dec 06:10:13 06:13:19 19° 95° (E) 06:16:29 437.445
STARS 18 Dec 06:12:12 06:14:26 14° 266° (W) 06:16:40 437.465
JUGNU 18 Dec 06:12:55 06:15:18 12° 195° (SSW) 06:17:41 437.505
BEESAT 2 18 Dec 06:13:11 06:14:28 11° 253° (WSW) 06:15:45 435.950
STRAND 1 18 Dec 06:14:22 06:19:23 58° 74° (ENE) 06:24:24 437.568
CUTE 1.7 + AOD 2 18 Dec 06:15:33 06:19:31 37° 98° (E) 06:23:28 437.475
O/OREOS (USA 219) 18 Dec 06:17:14 06:20:51 23° 102° (ESE) 06:24:28 437.305
NUDT-PHONESAT 18 Dec 06:25:10 06:28:45 44° 285° (WNW) 06:32:19 437.300
HO-68 18 Dec 06:28:03 06:35:02 54° 102° (ESE) 06:41:58 435.675
LilacSat-2 18 Dec 06:30:39 06:33:48 24° 288° (WNW) 06:36:55 437.200
KAITUO 1B 18 Dec 06:36:34 06:39:54 30° 287° (WNW) 06:43:12 145.475/437.950
XW-2D 18 Dec 06:39:36 06:42:24 19° 289° (WNW) 06:45:10 145.860 - 145.880
AO-85 18 Dec 06:47:38 06:51:55 29° 248° (WSW) 06:56:23 145.980
AO-73 18 Dec 06:49:34 06:51:28 12° 93° (E) 06:53:22 145.935
XW-2B 18 Dec 06:56:30 06:58:19 13° 291° (WNW) 07:00:09 145.730 - 145.750
XW-2F 18 Dec 07:05:38 07:06:37 11° 292° (WNW) 07:07:36 145.980 - 146.000
SRMSAT 18 Dec 07:05:57 07:10:17 21° 184° (S) 07:14:39 437.500
SEEDS 18 Dec 07:19:53 07:24:04 58° 284° (WNW) 07:28:11 437.485
AAUSAT CUBESAT 2 18 Dec 07:26:01 07:30:07 63° 100° (E) 07:34:12 437.432
XW-2A 18 Dec 07:28:49 07:32:15 73° 101° (E) 07:35:39 145.665 - 145.685
UWE-3 18 Dec 07:36:30 07:40:54 74° 283° (WNW) 07:45:24 435.000/436.395/437.385
CUTE-I 18 Dec 07:44:48 07:46:29 12° 297° (WNW) 07:48:12 437.470
CUBEBUG 2 18 Dec 07:46:06 07:49:53 30° 287° (WNW) 07:53:46 437.445
FO-29 18 Dec 07:47:27 07:55:08 70° 259° (WSW) 08:02:59 435.910
ZACube-1 18 Dec 07:52:06 07:56:32 84° 99° (E) 08:01:03 437.345
CUTE 1.7 + AOD 2 18 Dec 07:52:33 07:54:59 15° 292° (WNW) 07:57:24 437.475
O/OREOS (USA 219) 18 Dec 07:56:13 08:00:05 26° 296° (WNW) 08:03:58 437.305
STRAND 1 18 Dec 07:56:34 07:58:51 13° 267° (W) 08:01:08 437.568
Oscar 11 18 Dec 08:04:35 08:08:55 63° 100° (E) 08:13:13 .
nSIGHT-1 18 Dec 08:11:56 08:14:29 22° 129° (SE) 08:17:04 .
HO-68 18 Dec 08:16:43 08:22:16 25° 297° (WNW) 08:27:49 435.675
AO-73 18 Dec 08:23:35 08:27:50 47° 285° (WNW) 08:32:09 145.935
TIGRISAT 18 Dec 08:26:33 08:30:30 38° 73° (ENE) 08:34:25 435.000
UNISAT 6 18 Dec 08:30:48 08:34:55 48° 75° (ENE) 08:39:02 437.425
Max Valier Satellite 18 Dec 08:41:45 08:44:14 17° 95° (E) 08:46:43 145.860
SRMSAT 18 Dec 08:55:45 08:58:47 14° 194° (SSW) 09:01:50 437.500
EO-88 18 Dec 08:59:38 09:02:16 18° 96° (E) 09:04:52 145.990 - 145.960
ISS 18 Dec 09:08:18 09:11:33 81° 137° (SE) 09:14:51 437.550
DELFI C3 18 Dec 09:23:14 09:27:10 80° 282° (WNW) 09:31:03 145.870
PRISM 18 Dec 09:27:29 09:31:35 60° 75° (ENE) 09:35:41 437.425
nSIGHT-1 18 Dec 09:47:51 09:50:36 25° 324° (NW) 09:53:20 .
EO-79 18 Dec 09:54:37 09:56:14 12° 67° (ENE) 09:57:51 145.935-145.965
TIGRISAT 18 Dec 10:05:07 10:07:16 14° 266° (W) 10:09:26 435.000
UNISAT 6 18 Dec 10:10:50 10:11:50 11° 267° (W) 10:12:51 437.425
AIST 2D 18 Dec 10:10:54 10:14:22 67° 77° (ENE) 10:17:53 435.315
Max Valier Satellite 18 Dec 10:14:57 10:17:58 23° 288° (WNW) 10:20:59 145.860
POLYITAN 1 18 Dec 10:16:59 10:20:14 23° 70° (ENE) 10:23:31 437.675
EO-88 18 Dec 10:33:00 10:35:46 20° 288° (WNW) 10:38:31 145.990 - 145.960
DUCHIFAT 1 18 Dec 10:40:35 10:44:18 32° 72° (ENE) 10:48:00 145.980
QB50P2 18 Dec 10:42:08 10:46:12 52° 75° (ENE) 10:50:17 145.880/145.840
ISS 18 Dec 10:47:04 10:48:25 12° 331° (NNW) 10:49:46 437.550
LO-87 18 Dec 10:48:57 10:52:27 58° 101° (E) 10:55:57 145.935 - 145.965
ESTCUBE 1 18 Dec 10:50:11 10:54:30 42° 99° (E) 10:58:46 437.505/2401.250
BUGSAT 1 18 Dec 11:06:07 11:07:58 13° 68° (ENE) 11:09:49 437.445
NANOSAT C BR1 18 Dec 11:09:01 11:13:11 89° 103° (ESE) 11:17:23 145.865
EO-79 18 Dec 11:27:32 11:31:32 45° 260° (W) 11:35:33 145.935-145.965
POLYITAN 1 18 Dec 11:52:34 11:55:52 23° 264° (W) 11:59:12 437.675
RS-15 18 Dec 11:52:52 12:02:33 29° 103° (ESE) 12:12:13 29.354- 29.394
Gurwin Techsat 1B 18 Dec 11:58:25 12:02:44 26° 68° (ENE) 12:07:04 435.225
VELOX 1 18 Dec 12:04:40 12:08:44 36° 99° (E) 12:12:45 145.980
NO-84 18 Dec 12:08:54 12:12:33 44° 45° (NE) 12:16:25 435.350 FM
SPROUT 18 Dec 12:11:32 12:15:47 84° 103° (ESE) 12:20:02 437.525
DUCHIFAT 1 18 Dec 12:17:27 12:19:58 16° 266° (W) 12:22:29 145.980
Oscar 19 18 Dec 12:20:23 12:25:24 60° 74° (ENE) 12:30:29 437.125/150
ESTCUBE 1 18 Dec 12:28:18 12:30:54 15° 293° (WNW) 12:33:28 437.505/2401.250
SO-50 18 Dec 12:29:07 12:30:12 11° 107° (ESE) 12:31:18 436.795
AO-91 18 Dec 12:32:30 12:37:23 81° 77° (ENE) 12:41:47 145.960
BUGSAT 1 18 Dec 12:39:11 12:42:57 38° 261° (W) 12:46:42 437.445
YUBILEINY 18 Dec 12:40:16 12:48:08 35° 75° (ENE) 12:55:53 435.215
DX 1 18 Dec 12:47:10 12:50:25 20° 96° (E) 12:53:39 434.975-435.025
